Simultaneous Nadir Overpasses (SNOs) Predictions

Prediction of SNOs between GOES-16 and NOAA-20 Satellite Orbit:

Table of predicted SNOs for the next 14.0 days since TLE Epoch: 2/13/2021
Index Date Time (GOES-16) GOES-16 Lat,Lon NOAA-20 Lat,Lon Distance(km) Time Diff (sec)
1 02/13/2021 18:22:59 0.01, -75.13 0.23, -74.22 104.69 80
2 02/15/2021 06:44:47 -0.01, -75.13 0.96, -79.48 495.27 80
3 02/16/2021 06:23:22 -0.01, -75.14 -0.07, -74.95 22.06 80
4 02/18/2021 18:26:34 0.02, -75.17 -0.09, -75.72 62.26 80
5 02/19/2021 18:10:30 0.02, -75.18 0.94, -71.19 455.60 80
6 02/21/2021 06:32:17 -0.02, -75.19 0.25, -76.45 143.45 80
7 02/22/2021 06:10:52 -0.02, -75.21 -0.78, -71.93 374.28 80
8 02/23/2021 18:32:49 0.03, -75.23 -0.40, -77.23 227.33 80
9 02/24/2021 18:16:44 0.03, -75.24 0.63, -72.70 290.88 80
10 02/26/2021 06:38:31 -0.04, -75.27 0.57, -77.96 307.14 80
